sat.trackr.live / text

‹ back to catalog

PARS 1

NORAD 59065 · 2024-039Q

PAYLOAD ACTIVE UNKNOWN

§ Identity

Operator
Country
IRAN
Launch date
2024-02-29
Launch site
VOSTO
Launch vehicle
Mass (kg)
RCS (m²)

Purposes: earth_obs

External: N2YO · Heavens-Above · Gunter

§ Orbital elements

Epoch: 2026-09-19T23:14:22.280352Z

Period
93.05 min
Inclination
97.4930°
Eccentricity
0.0010825
Mean motion
15.47505936 rev/d
Perigee alt
416.7 km
Apogee alt
431.4 km
Semi-major
6,802.2 km
B*
1.6513e-4
RAAN
247.0585°
Arg perigee
123.6356°
Mean anomaly
236.5928°
Rev number
14,329

§ Raw data

PARS 11 59065U 24039Q   26262.96831343  .00008405  00000+0  16513-3 0  99932 59065  97.4930 247.0585 0010825 123.6356 236.5928 15.47505936143291

JSON: /api/v1/satellites/59065 · /tle

For live sub-satellite position, see the globe view (requires WebGL).

§ Visibility from observer

Set your observer location to see the next 7 days of passes ≥ 10°. The values pass through the URL so the page stays shareable.

No JS? Fill the form by hand. The geolocation button needs JavaScript.

§ Radio — SatNOGS DB

ModeDescriptionDownlinkUplink
FM Mode S - TTCM S 2.221 GHz
FM Mode V - ODS V/TTCR V 145.000 MHz

2 transmitters · refreshed weekly from db.satnogs.org